This is the latest recevied weather packets stored in our database for station/object KE8GJZ-2. If no packets are shown the sender has not sent any weather packets the latest 10 day(s).
| Time | Temp. | Humidity | Pressure | Rain* | Wind** | Luminosity | Snow |
|---|---|---|---|---|---|---|---|
| 1778162911 | 8.89° C | 55% | 1014.8 hPa | 0 mm | - | 594 W/m² | - |
| 1778162608 | 8.33° C | 57% | 1015.1 hPa | 0 mm | - | 570 W/m² | - |
| 1778162306 | 8.89° C | 56% | 1015.2 hPa | 0 mm | - | 532 W/m² | - |
| 1778162003 | 8.89° C | 56% | 1015.1 hPa | 0 mm | - | 514 W/m² | - |
| 1778161700 | 8.89° C | 60% | 1015.3 hPa | 0 mm | - | 490 W/m² | - |
| 1778161396 | 8.89° C | 56% | 1015.3 hPa | 0 mm | - | 471 W/m² | - |
| 1778161092 | 8.89° C | 58% | 1015 hPa | 0 mm | - | 455 W/m² | - |
| 1778160788 | 8.89° C | 59% | 1015 hPa | 0 mm | - | 447 W/m² | - |
| 1778160486 | 8.33° C | 60% | 1015.1 hPa | 0 mm | - | 422 W/m² | - |
| 1778160183 | 8.33° C | 63% | 1015 hPa | 0 mm | - | 326 W/m² | - |
| 1778159880 | 7.78° C | 68% | 1015.2 hPa | 0 mm | - | 374 W/m² | - |
| 1778159577 | 7.78° C | 69% | 1015.1 hPa | 0 mm | - | 351 W/m² | - |
| 1778159273 | 7.78° C | 69% | 1015.1 hPa | 0 mm | - | 329 W/m² | - |
| 1778158971 | 7.78° C | 66% | 1015.1 hPa | 0 mm | - | 326 W/m² | - |
| 1778158670 | 7.78° C | 67% | 1015.2 hPa | 0 mm | - | 303 W/m² | - |
| 1778158367 | 7.78° C | 67% | 1015.3 hPa | 0 mm | - | 296 W/m² | - |
| 1778158063 | 7.78° C | 72% | 1015.2 hPa | 0 mm | - | 275 W/m² | - |
| 1778157760 | 8.33° C | 68% | 1014.9 hPa | 0 mm | - | 283 W/m² | - |
| 1778157459 | 7.78° C | 71% | 1015.2 hPa | 0 mm | - | 226 W/m² | - |
| 1778157156 | 7.22° C | 71% | 1015 hPa | 0 mm | - | 230 W/m² | - |
| 1778156851 | 7.22° C | 73% | 1015.3 hPa | 0 mm | - | 230 W/m² | - |
| 1778156547 | 6.67° C | 73% | 1015.2 hPa | 0 mm | - | 202 W/m² | - |
| 1778156243 | 7.22° C | 71% | 1015.1 hPa | 0 mm | - | 185 W/m² | - |
| 1778155939 | 6.67° C | 73% | 1015.2 hPa | 0 mm | - | 184 W/m² | - |
| 1778155635 | 6.67° C | 72% | 1015.3 hPa | 0 mm | - | 160 W/m² | - |
* Rain latest hour (hover to see other rain measurements)
** Current wind speed in m/s (hover to see current wind gust speed)